Time,TemperatureF,DewpointF,PressureIn,WindDirection,WindDirectionDegrees,WindSpeedMPH,WindSpeedGustMPH,Humidity,HourlyPrecipIn,Conditions,Clouds,dailyrainin,SoftwareType,DateUTC
2013-03-22 00:03:00,29.0,21.0,29.93,West,280,9.0,17.0,71,0.00,,,0.00,,2013-03-22 04:03:00,
2013-03-22 00:12:00,29.0,21.0,29.93,West,280,9.0,17.0,71,0.00,,,0.00,,2013-03-22 04:12:00,
2013-03-22 00:23:00,29.0,21.0,29.93,West,280,9.0,17.0,71,0.00,,,0.00,,2013-03-22 04:23:00,
2013-03-22 00:32:00,29.0,21.0,29.93,West,280,9.0,17.0,71,0.00,,,0.00,,2013-03-22 04:32:00,
2013-03-22 00:52:00,28.0,20.0,29.93,WNW,300,7.0,19.0,70,0.00,,,0.00,,2013-03-22 04:52:00,
2013-03-22 01:02:00,28.0,20.0,29.93,West,269,7.0,15.0,70,0.00,,,0.00,,2013-03-22 05:02:00,
2013-03-22 01:12:00,28.0,20.0,29.93,West,269,7.0,15.0,70,0.00,,,0.00,,2013-03-22 05:12:00,
2013-03-22 01:22:00,28.0,20.0,29.93,West,276,6.0,16.0,70,0.00,,,0.00,,2013-03-22 05:22:00,
2013-03-22 01:32:00,28.0,20.0,29.93,NW,304,6.0,16.0,71,0.00,,,0.00,,2013-03-22 05:32:00,
2013-03-22 01:42:00,28.0,20.0,29.93,NW,304,6.0,16.0,71,0.00,,,0.00,,2013-03-22 05:42:00,
2013-03-22 01:52:00,28.0,20.0,29.93,WNW,300,7.0,13.0,71,0.00,,,0.00,,2013-03-22 05:52:00,
2013-03-22 02:02:00,28.0,20.0,29.93,West,279,6.0,14.0,71,0.00,,,0.00,,2013-03-22 06:02:00,
2013-03-22 02:13:00,28.0,20.0,29.93,West,279,6.0,14.0,71,0.00,,,0.00,,2013-03-22 06:13:00,
2013-03-22 02:22:00,27.0,19.0,29.93,West,267,6.0,13.0,71,0.00,,,0.00,,2013-03-22 06:22:00,
2013-03-22 02:32:00,27.0,19.0,29.93,West,269,4.0,13.0,71,0.00,,,0.00,,2013-03-22 06:32:00,
2013-03-22 02:42:00,27.0,19.0,29.93,West,269,4.0,13.0,71,0.00,,,0.00,,2013-03-22 06:42:00,
2013-03-22 02:52:00,27.0,19.0,29.93,West,269,4.0,13.0,71,0.00,,,0.00,,2013-03-22 06:52:00,
2013-03-22 03:03:00,27.0,19.0,29.93,NW,323,3.0,12.0,71,0.00,,,0.00,,2013-03-22 07:03:00,
2013-03-22 03:12:00,27.0,19.0,29.93,NW,323,3.0,12.0,71,0.00,,,0.00,,2013-03-22 07:12:00,
2013-03-22 03:22:00,27.0,19.0,29.93,NW,311,4.0,14.0,72,0.00,,,0.00,,2013-03-22 07:22:00,
2013-03-22 03:32:00,27.0,19.0,29.93,NW,304,4.0,12.0,72,0.00,,,0.00,,2013-03-22 07:32:00,
2013-03-22 03:42:00,27.0,19.0,29.93,NW,304,4.0,12.0,72,0.00,,,0.00,,2013-03-22 07:42:00,
2013-03-22 03:52:00,27.0,19.0,29.93,NW,304,4.0,12.0,72,0.00,,,0.00,,2013-03-22 07:52:00,
2013-03-22 04:03:00,27.0,20.0,29.93,West,264,7.0,17.0,73,0.00,,,0.00,,2013-03-22 08:03:00,
2013-03-22 04:13:00,27.0,20.0,29.93,West,264,7.0,17.0,73,0.00,,,0.00,,2013-03-22 08:13:00,
2013-03-22 04:22:00,27.0,20.0,29.93,WNW,294,5.0,15.0,73,0.00,,,0.00,,2013-03-22 08:22:00,
2013-03-22 04:32:00,27.0,20.0,29.93,WNW,302,4.0,10.0,73,0.00,,,0.00,,2013-03-22 08:32:00,
2013-03-22 04:40:00,27.0,20.0,29.94,WNW,285,6.0,17.0,73,0.00,,,0.00,,2013-03-22 08:40:00,
2013-03-22 04:42:00,27.0,20.0,29.93,WNW,302,4.0,10.0,73,0.00,,,0.00,,2013-03-22 08:42:00,
2013-03-22 04:52:00,27.0,20.0,29.93,WNW,286,6.0,14.0,73,0.00,,,0.00,,2013-03-22 08:52:00,
2013-03-22 05:02:00,27.0,20.0,29.94,WNW,285,6.0,17.0,73,0.00,,,0.00,,2013-03-22 09:02:00,
2013-03-22 05:12:00,27.0,20.0,29.94,WNW,285,6.0,17.0,73,0.00,,,0.00,,2013-03-22 09:12:00,
2013-03-22 05:22:00,27.0,20.0,29.94,WNW,285,6.0,17.0,73,0.00,,,0.00,,2013-03-22 09:22:00,
2013-03-22 05:32:00,27.0,20.0,29.94,WNW,285,6.0,17.0,73,0.00,,,0.00,,2013-03-22 09:32:00,
2013-03-22 05:53:00,27.0,19.0,29.94,West,267,6.0,13.0,72,0.00,,,0.00,,2013-03-22 09:53:00,
2013-03-22 06:04:00,27.0,19.0,29.94,West,267,6.0,13.0,72,0.00,,,0.00,,2013-03-22 10:04:00,
2013-03-22 06:12:00,27.0,19.0,29.94,West,267,6.0,13.0,72,0.00,,,0.00,,2013-03-22 10:12:00,
2013-03-22 06:22:00,26.0,19.0,29.94,West,267,8.0,13.0,75,0.00,,,0.00,,2013-03-22 10:22:00,
2013-03-22 06:33:00,26.0,19.0,29.94,West,267,8.0,13.0,75,0.00,,,0.00,,2013-03-22 10:33:00,
2013-03-22 06:42:00,26.0,19.0,29.94,West,267,8.0,13.0,75,0.00,,,0.00,,2013-03-22 10:42:00,
2013-03-22 06:52:00,26.0,19.0,29.95,WNW,290,7.0,12.0,74,0.00,,,0.00,,2013-03-22 10:52:00,
2013-03-22 07:03:00,27.0,20.0,29.95,WNW,286,6.0,14.0,74,0.00,,,0.00,,2013-03-22 11:03:00,
2013-03-22 07:12:00,27.0,20.0,29.95,WNW,286,6.0,14.0,74,0.00,,,0.00,,2013-03-22 11:12:00,
2013-03-22 07:22:00,27.0,20.0,29.96,NW,316,6.0,12.0,73,0.00,,,0.00,,2013-03-22 11:22:00,
2013-03-22 07:33:00,27.0,20.0,29.96,NW,316,6.0,12.0,73,0.00,,,0.00,,2013-03-22 11:33:00,
2013-03-22 07:42:00,27.0,20.0,29.96,NW,316,6.0,12.0,73,0.00,,,0.00,,2013-03-22 11:42:00,
2013-03-22 07:52:00,27.0,20.0,29.97,NW,312,4.0,13.0,73,0.00,,,0.00,,2013-03-22 11:52:00,
2013-03-22 08:02:00,27.0,20.0,29.97,NW,304,5.0,12.0,73,0.00,,,0.00,,2013-03-22 12:02:00,
2013-03-22 08:12:00,27.0,20.0,29.97,WNW,297,5.0,13.0,73,0.00,,,0.00,,2013-03-22 12:12:00,
2013-03-22 08:22:00,27.0,20.0,29.97,WNW,297,5.0,13.0,73,0.00,,,0.00,,2013-03-22 12:22:00,
2013-03-22 08:32:00,27.0,20.0,29.97,WNW,290,5.0,14.0,73,0.00,,,0.00,,2013-03-22 12:32:00,
2013-03-22 08:42:00,27.0,20.0,29.97,WNW,290,5.0,14.0,73,0.00,,,0.00,,2013-03-22 12:42:00,
2013-03-22 08:52:00,27.0,20.0,29.97,WNW,299,6.0,11.0,74,0.00,,,0.00,,2013-03-22 12:52:00,
2013-03-22 09:02:00,27.0,20.0,29.97,WNW,299,6.0,11.0,74,0.00,,,0.00,,2013-03-22 13:02:00,
2013-03-22 09:12:00,27.0,20.0,29.97,WNW,299,6.0,11.0,74,0.00,,,0.00,,2013-03-22 13:12:00,
2013-03-22 09:22:00,28.0,21.0,29.97,West,271,4.0,9.0,75,0.00,,,0.00,,2013-03-22 13:22:00,
2013-03-22 09:32:00,28.0,21.0,29.97,West,271,4.0,9.0,75,0.00,,,0.00,,2013-03-22 13:32:00,
2013-03-22 09:42:00,28.0,21.0,29.97,West,271,4.0,9.0,75,0.00,,,0.00,,2013-03-22 13:42:00,
2013-03-22 09:52:00,29.0,21.0,29.97,NW,311,4.0,10.0,73,0.00,,,0.00,,2013-03-22 13:52:00,
2013-03-22 10:02:00,29.0,21.0,29.97,WNW,300,4.0,12.0,72,0.00,,,0.00,,2013-03-22 14:02:00,
2013-03-22 10:12:00,29.0,21.0,29.97,WNW,300,4.0,12.0,72,0.00,,,0.00,,2013-03-22 14:12:00,
2013-03-22 10:22:00,29.0,21.0,29.97,NW,308,4.0,13.0,71,0.00,,,0.00,,2013-03-22 14:22:00,
2013-03-22 10:32:00,29.0,21.0,29.97,NW,318,4.0,14.0,71,0.00,,,0.00,,2013-03-22 14:32:00,
2013-03-22 10:42:00,29.0,21.0,29.97,NW,318,4.0,14.0,71,0.00,,,0.00,,2013-03-22 14:42:00,
2013-03-22 10:52:00,30.0,21.0,29.98,WNW,295,4.0,12.0,70,0.00,,,0.00,,2013-03-22 14:52:00,
2013-03-22 11:03:00,30.0,21.0,29.98,WNW,295,4.0,12.0,70,0.00,,,0.00,,2013-03-22 15:03:00,
2013-03-22 11:12:00,30.0,21.0,29.98,WNW,295,4.0,12.0,70,0.00,,,0.00,,2013-03-22 15:12:00,
2013-03-22 11:22:00,31.0,21.0,29.98,West,281,5.0,13.0,67,0.00,,,0.00,,2013-03-22 15:22:00,
2013-03-22 11:33:00,32.0,22.0,29.97,NW,322,6.0,11.0,66,0.00,,,0.00,,2013-03-22 15:33:00,
2013-03-22 11:43:00,32.0,22.0,29.97,NW,322,6.0,11.0,66,0.00,,,0.00,,2013-03-22 15:43:00,
2013-03-22 11:53:00,34.0,23.0,29.97,WNW,299,3.0,13.0,64,0.00,,,0.00,,2013-03-22 15:53:00,
2013-03-22 12:03:00,34.0,22.0,29.97,NNW,332,6.0,13.0,62,0.00,,,0.00,,2013-03-22 16:03:00,
2013-03-22 12:13:00,35.0,23.0,29.97,NNW,334,7.0,15.0,60,0.00,,,0.00,,2013-03-22 16:13:00,
2013-03-22 12:23:00,35.0,23.0,29.97,NNW,334,7.0,15.0,60,0.00,,,0.00,,2013-03-22 16:23:00,
2013-03-22 12:32:00,36.0,24.0,29.98,West,263,5.0,12.0,61,0.00,,,0.00,,2013-03-22 16:32:00,
2013-03-22 12:42:00,37.0,24.0,29.97,SW,231,3.0,11.0,59,0.00,,,0.00,,2013-03-22 16:42:00,
2013-03-22 12:52:00,37.0,24.0,29.97,SW,231,3.0,11.0,59,0.00,,,0.00,,2013-03-22 16:52:00,
2013-03-22 13:03:00,37.0,24.0,29.97,SW,231,3.0,11.0,59,0.00,,,0.00,,2013-03-22 17:03:00,
2013-03-22 13:12:00,40.0,25.0,29.97,NW,316,4.0,11.0,54,0.00,,,0.00,,2013-03-22 17:12:00,
2013-03-22 13:23:00,40.0,25.0,29.97,NW,316,4.0,11.0,54,0.00,,,0.00,,2013-03-22 17:23:00,
2013-03-22 13:32:00,40.0,25.0,29.97,NW,316,4.0,11.0,54,0.00,,,0.00,,2013-03-22 17:32:00,
2013-03-22 13:42:00,40.0,25.0,29.97,NW,316,4.0,11.0,54,0.00,,,0.00,,2013-03-22 17:42:00,
2013-03-22 13:53:00,39.0,24.0,29.98,WNW,303,6.0,11.0,55,0.00,,,0.00,,2013-03-22 17:53:00,
2013-03-22 14:02:00,38.0,24.0,29.98,WSW,253,7.0,14.0,56,0.00,,,0.00,,2013-03-22 18:02:00,
2013-03-22 14:12:00,38.0,24.0,29.98,WSW,253,7.0,14.0,56,0.00,,,0.00,,2013-03-22 18:12:00,
2013-03-22 14:22:00,40.0,24.0,29.98,West,279,7.0,14.0,53,0.00,,,0.00,,2013-03-22 18:22:00,
2013-03-22 14:33:00,40.0,24.0,29.98,West,279,7.0,14.0,53,0.00,,,0.00,,2013-03-22 18:33:00,
2013-03-22 14:42:00,40.0,24.0,29.98,West,279,7.0,14.0,53,0.00,,,0.00,,2013-03-22 18:42:00,
2013-03-22 14:52:00,41.0,25.0,29.96,West,272,5.0,12.0,53,0.00,,,0.00,,2013-03-22 18:52:00,
2013-03-22 15:02:00,41.0,25.0,29.96,West,272,5.0,12.0,53,0.00,,,0.00,,2013-03-22 19:02:00,
2013-03-22 15:12:00,41.0,25.0,29.96,West,272,5.0,12.0,53,0.00,,,0.00,,2013-03-22 19:12:00,
2013-03-22 15:22:00,41.0,25.0,29.96,WSW,252,7.0,12.0,53,0.00,,,0.00,,2013-03-22 19:22:00,
2013-03-22 15:32:00,41.0,25.0,29.96,WSW,252,7.0,12.0,53,0.00,,,0.00,,2013-03-22 19:32:00,
2013-03-22 15:43:00,41.0,25.0,29.96,WSW,252,7.0,12.0,53,0.00,,,0.00,,2013-03-22 19:43:00,
2013-03-22 15:52:00,42.0,27.0,29.95,NW,304,7.0,16.0,54,0.00,,,0.00,,2013-03-22 19:52:00,
2013-03-22 16:02:00,42.0,26.0,29.94,West,264,9.0,20.0,53,0.00,,,0.00,,2013-03-22 20:02:00,
2013-03-22 16:13:00,42.0,26.0,29.94,West,264,9.0,20.0,53,0.00,,,0.00,,2013-03-22 20:13:00,
2013-03-22 16:22:00,42.0,26.0,29.94,NW,309,7.0,16.0,52,0.00,,,0.00,,2013-03-22 20:22:00,
2013-03-22 16:32:00,42.0,25.0,29.94,WSW,248,11.0,18.0,51,0.00,,,0.00,,2013-03-22 20:32:00,
2013-03-22 16:43:00,42.0,25.0,29.94,WSW,248,11.0,18.0,51,0.00,,,0.00,,2013-03-22 20:43:00,
2013-03-22 16:52:00,42.0,25.0,29.93,WSW,252,9.0,14.0,51,0.00,,,0.00,,2013-03-22 20:52:00,
2013-03-22 17:03:00,42.0,25.0,29.93,WSW,244,7.0,16.0,51,0.00,,,0.00,,2013-03-22 21:03:00,
2013-03-22 17:12:00,42.0,25.0,29.93,SW,232,5.0,16.0,51,0.00,,,0.00,,2013-03-22 21:12:00,
2013-03-22 17:22:00,42.0,25.0,29.93,SW,232,5.0,16.0,51,0.00,,,0.00,,2013-03-22 21:22:00,
2013-03-22 17:33:00,42.0,25.0,29.93,WNW,288,10.0,15.0,51,0.00,,,0.00,,2013-03-22 21:33:00,
2013-03-22 17:43:00,42.0,25.0,29.93,WNW,288,10.0,15.0,51,0.00,,,0.00,,2013-03-22 21:43:00,
2013-03-22 17:53:00,42.0,26.0,29.93,WSW,242,5.0,15.0,52,0.00,,,0.00,,2013-03-22 21:53:00,
2013-03-22 18:03:00,42.0,25.0,29.93,WSW,240,6.0,15.0,51,0.00,,,0.00,,2013-03-22 22:03:00,
2013-03-22 18:12:00,42.0,25.0,29.93,WSW,240,6.0,15.0,51,0.00,,,0.00,,2013-03-22 22:12:00,
2013-03-22 18:23:00,42.0,25.0,29.93,West,265,9.0,13.0,51,0.00,,,0.00,,2013-03-22 22:23:00,
2013-03-22 18:32:00,42.0,25.0,29.93,West,265,9.0,13.0,51,0.00,,,0.00,,2013-03-22 22:32:00,
2013-03-22 18:42:00,42.0,25.0,29.93,West,265,9.0,13.0,51,0.00,,,0.00,,2013-03-22 22:42:00,
2013-03-22 18:53:00,41.0,25.0,29.93,NW,308,4.0,16.0,53,0.00,,,0.00,,2013-03-22 22:53:00,
2013-03-22 19:02:00,41.0,25.0,29.93,West,271,8.0,11.0,53,0.00,,,0.00,,2013-03-22 23:02:00,
2013-03-22 19:12:00,41.0,25.0,29.93,West,271,8.0,11.0,53,0.00,,,0.00,,2013-03-22 23:12:00,
2013-03-22 19:22:00,41.0,25.0,29.93,West,263,6.0,11.0,53,0.00,,,0.00,,2013-03-22 23:22:00,
2013-03-22 19:30:00,39.0,25.0,29.94,West,273,4.0,10.0,56,0.00,,,0.00,,2013-03-22 23:30:00,
2013-03-22 19:32:00,40.0,25.0,29.94,West,265,5.0,12.0,55,0.00,,,0.00,,2013-03-22 23:32:00,
2013-03-22 19:42:00,40.0,25.0,29.94,West,265,5.0,12.0,55,0.00,,,0.00,,2013-03-22 23:42:00,
2013-03-22 19:52:00,39.0,25.0,29.94,West,273,4.0,10.0,56,0.00,,,0.00,,2013-03-22 23:52:00,
2013-03-22 20:02:00,39.0,25.0,29.94,West,273,4.0,10.0,56,0.00,,,0.00,,2013-03-23 00:02:00,
2013-03-22 20:12:00,39.0,25.0,29.94,West,273,4.0,10.0,56,0.00,,,0.00,,2013-03-23 00:12:00,
2013-03-22 20:23:00,39.0,25.0,29.94,West,273,4.0,10.0,56,0.00,,,0.00,,2013-03-23 00:23:00,
2013-03-22 20:42:00,36.0,24.0,29.97,West,263,3.0,5.0,62,0.00,,,0.00,,2013-03-23 00:42:00,
2013-03-22 20:52:00,36.0,24.0,29.97,West,263,3.0,5.0,62,0.00,,,0.00,,2013-03-23 00:52:00,
2013-03-22 21:03:00,36.0,25.0,29.97,West,261,3.0,5.0,63,0.00,,,0.00,,2013-03-23 01:03:00,
2013-03-22 21:12:00,36.0,25.0,29.97,West,261,3.0,5.0,63,0.00,,,0.00,,2013-03-23 01:12:00,
2013-03-22 21:22:00,35.0,24.0,29.97,West,263,3.0,5.0,64,0.00,,,0.00,,2013-03-23 01:22:00,
2013-03-22 21:32:00,35.0,24.0,29.97,West,263,3.0,5.0,64,0.00,,,0.00,,2013-03-23 01:32:00,
2013-03-22 21:42:00,35.0,24.0,29.97,West,263,3.0,5.0,64,0.00,,,0.00,,2013-03-23 01:42:00,
2013-03-22 21:52:00,34.0,24.0,29.98,West,262,1.0,4.0,66,0.00,,,0.00,,2013-03-23 01:52:00,
2013-03-22 22:02:00,34.0,24.0,29.98,West,261,1.0,3.0,67,0.00,,,0.00,,2013-03-23 02:02:00,
2013-03-22 22:12:00,34.0,24.0,29.98,West,261,1.0,3.0,67,0.00,,,0.00,,2013-03-23 02:12:00,
2013-03-22 22:22:00,33.0,24.0,29.99,West,262,3.0,4.0,68,0.00,,,0.00,,2013-03-23 02:22:00,
2013-03-22 22:32:00,33.0,24.0,29.99,West,262,2.0,4.0,69,0.00,,,0.00,,2013-03-23 02:32:00,
2013-03-22 22:42:00,33.0,24.0,29.99,West,262,2.0,4.0,69,0.00,,,0.00,,2013-03-23 02:42:00,
2013-03-22 22:52:00,32.0,23.0,29.99,West,261,2.0,5.0,70,0.00,,,0.00,,2013-03-23 02:52:00,
2013-03-22 23:02:00,32.0,23.0,29.99,West,261,2.0,5.0,70,0.00,,,0.00,,2013-03-23 03:02:00,
2013-03-22 23:12:00,32.0,23.0,29.99,West,261,2.0,5.0,70,0.00,,,0.00,,2013-03-23 03:12:00,
2013-03-22 23:22:00,32.0,24.0,29.99,West,260,3.0,4.0,71,0.00,,,0.00,,2013-03-23 03:22:00,
2013-03-22 23:33:00,31.0,23.0,29.98,West,261,3.0,5.0,72,0.00,,,0.00,,2013-03-23 03:33:00,
2013-03-22 23:43:00,31.0,23.0,29.98,West,261,3.0,5.0,72,0.00,,,0.00,,2013-03-23 03:43:00,
2013-03-22 23:53:00,31.0,23.0,29.98,West,261,3.0,4.0,72,0.00,,,0.00,,2013-03-23 03:53:00,